[[{"header":{"parameterUnit":"m.s-1","parameterCategory":1,"la1":30.2991,"la2":30.254,"lo1":-89.0895,"lo2":-89.0444,"dy":0.0017,"dx":0.0017,"nx":28,"ny":28,"refTime":"2023-09-22T09:00:00:Z","depth":0,"parameterNumber":2,"parameterNumberName":"U-component_of_WINDS"},"data":[0,0,0,0,0,0,0,0,0,0,0,0,0,0,0,0,0,0,0,0,0,0,0,0,0,0,0,0,0,0,0,0,0,0,0,0,0,0,0,0,0,0,0,0,0,0,0,0,0,0,0,0,0,0,0,0,0,0,-1.1042,-1.104,0,-1.0926,-1.0924,-1.0923,-1.0803,-1.0801,-1.0799,-1.0798,-1.068,-1.0678,-1.0677,0,0,0,0,0,0,0,0,0,0,0,0,0,-1.1162,-1.116,-1.1042,-1.104,-1.1039,-1.0926,-1.0924,-1.0923,-1.0803,-1.0801,-1.0799,-1.0797,-1.068,-1.0678,-1.0676,0,0,0,0,0,0,0,0,0,0,0,0,0,-1.1084,-1.116,-1.1042,-1.0965,-1.0957,-1.0926,-1.0924,-1.0922,-1.0803,-1.0801,-1.0798,-1.0796,-1.0681,-1.0679,-1.0676,-1.0711,0,0,-1.0669,-1.0668,0,0,0,0,0,0,0,0,-1.1089,-1.108,-1.0978,-1.0971,-1.0962,-1.0876,-1.0923,-1.0851,-1.0804,-1.0862,-1.0798,-1.0795,-1.0747,-1.0739,-1.0723,-1.0706,-1.0701,-1.0669,-1.0667,-1.0666,-1.0665,0,0,0,0,0,0,0,-1.1094,-1.1084,-1.0996,-1.0977,-1.0967,-1.0938,-1.0924,-1.0909,-1.082,-1.0857,-1.0848,-1.0835,-1.0742,-1.0725,-1.0719,-1.0699,-1.0669,-1.0667,-1.0665,-1.0664,-1.0707,-1.0709,0,0,0,0,0,0,-1.1111,-1.1089,-1.0999,-1.0992,-1.102,-1.0937,-1.0922,-1.0906,-1.082,-1.0804,-1.0838,-1.083,-1.0731,-1.0722,-1.0715,-1.0751,-1.0666,-1.0664,-1.0663,-1.0704,-1.0707,-1.071,0,0,0,0,0,0,-1.1114,-1.1104,-1.1004,-1.1038,-1.1023,-1.0938,-1.0921,-1.0905,-1.0888,-1.0805,-1.0789,-1.0837,-1.0728,-1.0718,-1.0713,-1.0745,-1.0663,-1.0661,-1.0701,-1.0705,-1.0709,-1.0824,0,0,0,0,0,0,-1.1118,-1.1106,-1.1118,-1.1039,-1.1022,-1.1005,-1.0923,-1.0905,-1.0884,-1.0873,-1.08,-1.0786,-1.0726,-1.0718,-1.0711,-1.074,-1.0659,-1.0698,-1.0703,-1.0707,-1.0817,-1.0831,-1.0843,0,0,0,0,0,-1.1123,-1.1155,-1.1119,-1.1109,-1.1035,-1.1007,-1.0997,-1.0926,-1.0887,-1.0899,-1.0846,-1.0788,-1.0743,-1.0718,-1.071,-1.0739,-1.0695,-1.0701,-1.0707,-1.0811,-1.0828,-1.0843,0,0,0,0,0,0,-1.1239,-1.1143,-1.1102,-1.111,-1.1067,-1.0986,-1.0999,-1.0947,-1.0915,-1.0906,-1.0821,-1.0805,-1.0811,-1.0774,-1.0748,-1.0769,-1.0711,-1.0716,-1.0793,-1.0809,-1.0822,-1.0831,-1.0657,0,0,0,0,0,-1.1265,-1.125,-1.1167,-1.1182,-1.1162,-1.1085,-1.107,-1.102,-1.0972,-1.0954,-1.09,-1.0857,-1.0833,-1.0819,-1.0792,-1.0811,-1.0794,-1.0827,-1.0841,-1.0852,-1.0857,-1.0866,-1.088,-1.0729,-1.0729,-1.0729,0,0,-1.132,-1.1265,-1.1261,-1.1204,-1.1165,-1.1151,-1.107,-1.1059,-1.1049,-1.0952,-1.0944,-1.0904,-1.085,-1.0858,-1.0859,-1.0828,-1.0895,-1.0859,-1.0869,-1.0867,-1.0873,-1.0888,-1.0901,-1.0733,-1.0732,-1.0731,0,0,-1.1412,-1.1369,-1.1377,-1.134,-1.1283,-1.1231,-1.1234,-1.1161,-1.113,-1.1121,-1.1049,-1.1036,-1.0996,-1.0961,-1.0938,-1.102,-1.0966,-1.1014,-1.1083,-1.1093,-1.1105,-1.1115,-1.1146,-1.1158,-1.1019,-1.1019,-1.1019,0,-1.1487,-1.1464,-1.1388,-1.1382,-1.136,-1.1272,-1.128,-1.1248,-1.1185,-1.1172,-1.1138,-1.1087,-1.1044,-1.1044,-1.1064,-1.1048,-1.1049,-1.1021,-1.1109,-1.1119,-1.1127,-1.1155,-1.1167,-1.1025,-1.1024,-1.1024,-1.1023,0,-1.1559,-1.1545,-1.1558,-1.15,-1.1479,-1.148,-1.1406,-1.1394,-1.1346,-1.1299,-1.1292,-1.1238,-1.12,-1.1196,-1.1149,-1.1189,-1.1172,-1.1125,-1.1065,-1.1149,-1.1174,-1.1184,-1.1034,-1.1032,-1.103,-1.1028,0,0,-1.1721,-1.1622,-1.1628,-1.1602,-1.1532,-1.152,-1.1518,-1.148,-1.1472,-1.1432,-1.1429,-1.1399,-1.1355,-1.1329,-1.1278,-1.1287,-1.1357,-1.1238,-1.1236,-1.1263,-1.14,-1.1437,-1.145,-1.1321,-1.1323,-1.1324,-1.1405,0,-1.1802,-1.1792,-1.1725,-1.1736,-1.1722,-1.1639,-1.1638,-1.1596,-1.1552,-1.1534,-1.1486,-1.1466,-1.1409,-1.1393,-1.1398,-1.1348,-1.1384,-1.1341,-1.1318,-1.1318,-1.1335,-1.1463,-1.1501,-1.158,-1.1414,-1.1416,-1.1417,0,-1.1895,-1.1861,-1.1871,-1.1803,-1.1795,-1.1794,-1.1756,-1.1739,-1.1691,-1.1659,-1.1631,-1.1574,-1.1568,-1.1512,-1.1504,-1.1476,-1.1463,-1.1438,-1.1439,-1.1434,-1.1373,-1.1463,-1.1604,-1.1616,-1.1431,-1.143,-1.1429,0,-1.2013,-1.197,-1.197,-1.195,-1.1871,-1.1873,-1.184,-1.1789,-1.1772,-1.1738,-1.1726,-1.1693,-1.1675,-1.1651,-1.1586,-1.1551,-1.1586,-1.1524,-1.156,-1.1562,-1.1571,-1.1572,-1.1713,-1.1562,-1.1562,-1.1562,-1.1562,0,-1.2111,-1.212,-1.2023,-1.2023,-1.2031,-1.1955,-1.1966,-1.1925,-1.1881,-1.1873,-1.1799,-1.1793,-1.1708,-1.1693,-1.1642,-1.1645,-1.1637,-1.1611,-1.1598,-1.1618,-1.1622,-1.1609,-1.1602,-1.1565,-1.1564,-1.1564,-1.1563,0,-1.2244,-1.2179,-1.2174,-1.21,-1.2082,-1.2092,-1.2029,-1.2027,-1.1979,-1.197,-1.1963,-1.1888,-1.1867,-1.18,-1.1762,-1.1728,-1.1746,-1.172,-1.1763,-1.1754,-1.1794,-1.1792,-1.1933,-1.1948,-1.1788,-1.1789,-1.1791,0,-1.2311,-1.2316,-1.2244,-1.2233,-1.2203,-1.2187,-1.2169,-1.2095,-1.2079,-1.2026,-1.2031,-1.2003,-1.1977,-1.1947,-1.189,-1.1861,-1.1834,-1.1886,-1.1829,-1.1851,-1.1837,-1.1837,-1.1838,-1.1898,-1.19,-1.1902,-1.1903,0,-1.2437,-1.2405,-1.2382,-1.2348,-1.2329,-1.2299,-1.2264,-1.226,-1.2177,-1.2164,-1.2141,-1.2121,-1.2083,-1.2057,-1.202,-1.1986,-1.1932,-1.1922,-1.1929,-1.195,-1.1975,-1.1963,-1.1797,-1.1919,-1.1917,-1.1916,-1.1915,-1.1915,-1.254,-1.2541,-1.2491,-1.2468,-1.2435,-1.2405,-1.24,-1.2352,-1.2331,-1.2294,-1.2252,-1.2235,-1.2188,-1.2132,-1.2103,-1.2089,-1.206,-1.207,-1.2072,-1.2076,-1.2086,-1.1977,-1.2082,-1.2081,-1.2081,-1.2081,-1.208,0,-1.2663,-1.2627,-1.2607,-1.2562,-1.2544,-1.2494,-1.2454,-1.2443,-1.2429,-1.239,-1.2366,-1.2342,-1.2317,-1.2259,-1.2229,-1.223,-1.2204,-1.2225,-1.2224,-1.2218,-1.2114,-1.2111,-1.2246,-1.2246,-1.2246,-1.2246,-1.2246,-1.2246,-1.2725,-1.2726,-1.2688,-1.2672,-1.2636,-1.2619,-1.26,-1.2573,-1.2541,-1.2517,-1.2496,-1.2459,-1.2412,-1.2379,-1.2355,-1.2339,-1.2332,-1.2361,-1.2337,-1.2241,-1.2225,-1.221,-1.2207,-1.236,-1.236,-1.2442,-1.2442,-1.2443]},{"header":{"parameterUnit":"m.s-1","parameterCategory":1,"la1":30.2991,"la2":30.254,"lo1":-89.0895,"lo2":-89.0444,"dy":0.0017,"dx":0.0017,"nx":28,"ny":28,"refTime":"2023-09-22T09:00:00:Z","depth":0,"parameterNumber":3,"parameterNumberName":"V-component_of_WINDS"},"data":[0,0,0,0,0,0,0,0,0,0,0,0,0,0,0,0,0,0,0,0,0,0,0,0,0,0,0,0,0,0,0,0,0,0,0,0,0,0,0,0,0,0,0,0,0,0,0,0,0,0,0,0,0,0,0,0,0,0,0.6667,0.6666,0,0.6615,0.6614,0.6613,0.6595,0.6595,0.6595,0.6595,0.6537,0.6535,0.6533,0,0,0,0,0,0,0,0,0,0,0,0,0,0.6747,0.6745,0.6667,0.6666,0.6666,0.6615,0.6614,0.6613,0.6594,0.6595,0.6595,0.6595,0.6537,0.6535,0.6533,0,0,0,0,0,0,0,0,0,0,0,0,0,0.6705,0.6745,0.6667,0.665,0.6648,0.6615,0.6614,0.6613,0.6594,0.6595,0.6595,0.6595,0.6538,0.6535,0.6533,0.6511,0,0,0.6525,0.6524,0,0,0,0,0,0,0,0,0.6707,0.6702,0.6653,0.6651,0.6649,0.6612,0.6621,0.6579,0.6594,0.6615,0.6595,0.6595,0.6561,0.6557,0.6546,0.6508,0.6506,0.6525,0.6523,0.6522,0.6521,0,0,0,0,0,0,0,0.671,0.6704,0.6646,0.6653,0.665,0.6644,0.6638,0.6613,0.6587,0.6613,0.6612,0.6606,0.656,0.6548,0.6544,0.6505,0.6525,0.6522,0.6521,0.652,0.6445,0.6445,0,0,0,0,0,0,0.6717,0.6707,0.6648,0.6645,0.668,0.6642,0.6636,0.6623,0.6587,0.6582,0.6606,0.6605,0.6553,0.6547,0.6542,0.6513,0.6522,0.6519,0.6518,0.6446,0.6445,0.6445,0,0,0,0,0,0,0.6718,0.6711,0.665,0.6675,0.6667,0.6641,0.6626,0.6622,0.6611,0.6581,0.6576,0.6599,0.6553,0.6546,0.6519,0.6511,0.6518,0.6516,0.6446,0.6445,0.6445,0.6456,0,0,0,0,0,0,0.6721,0.6712,0.6705,0.6675,0.6666,0.6629,0.6626,0.6621,0.6607,0.6606,0.6574,0.6569,0.6552,0.6523,0.6516,0.6508,0.6514,0.6447,0.6446,0.6445,0.6456,0.6456,0.6456,0,0,0,0,0,0.6724,0.6709,0.6704,0.6697,0.6656,0.6628,0.6623,0.6606,0.6606,0.6598,0.6579,0.657,0.6513,0.652,0.6513,0.6503,0.6447,0.6446,0.6445,0.6456,0.6456,0.6456,0,0,0,0,0,0,0.6736,0.6705,0.6699,0.6675,0.6655,0.6625,0.6614,0.6606,0.6584,0.6583,0.6562,0.6555,0.6529,0.6513,0.6522,0.6479,0.6479,0.6477,0.6491,0.649,0.649,0.6493,0.6512,0,0,0,0,0,0.6737,0.6719,0.6691,0.6673,0.6663,0.664,0.6628,0.6616,0.6594,0.6585,0.6564,0.6541,0.6518,0.6503,0.6481,0.6454,0.6446,0.6444,0.6444,0.6443,0.6441,0.6425,0.6423,0.6441,0.6442,0.6442,0,0,0.6737,0.6717,0.6707,0.6675,0.6658,0.6638,0.6633,0.6612,0.6597,0.6581,0.6554,0.6539,0.6511,0.6485,0.6472,0.6471,0.6434,0.6442,0.6442,0.644,0.6424,0.6422,0.6421,0.6441,0.6441,0.6441,0,0,0.6726,0.671,0.6693,0.6676,0.6651,0.6636,0.6632,0.6604,0.6593,0.6566,0.6554,0.6534,0.6496,0.6477,0.6462,0.6445,0.6435,0.6438,0.6436,0.642,0.6419,0.6418,0.641,0.6408,0.6436,0.6436,0.6436,0,0.6729,0.67,0.6684,0.6664,0.665,0.6636,0.6617,0.6601,0.6569,0.6559,0.6559,0.651,0.6491,0.6459,0.6455,0.6444,0.6437,0.6441,0.6421,0.6419,0.6418,0.641,0.6408,0.6436,0.6436,0.6436,0.6436,0,0.6704,0.6684,0.6672,0.6644,0.6628,0.6609,0.6589,0.6575,0.6565,0.655,0.6522,0.6499,0.6471,0.6463,0.6452,0.6429,0.6429,0.6425,0.6425,0.6417,0.6409,0.6407,0.6437,0.6437,0.6437,0.6437,0,0,0.6699,0.6662,0.6658,0.6645,0.6616,0.66,0.6579,0.6554,0.6542,0.652,0.6501,0.6469,0.6466,0.6449,0.6436,0.6423,0.641,0.642,0.6419,0.6418,0.6381,0.6384,0.6381,0.6404,0.6403,0.6403,0.6383,0,0.6684,0.6649,0.6634,0.6605,0.6585,0.6572,0.6554,0.6534,0.6519,0.65,0.6483,0.646,0.6457,0.6447,0.6433,0.6414,0.6402,0.6416,0.6384,0.6384,0.6391,0.6377,0.638,0.6363,0.638,0.638,0.638,0,0.6662,0.6642,0.6611,0.6585,0.6576,0.656,0.6535,0.6517,0.6494,0.6484,0.6466,0.6454,0.643,0.6432,0.6399,0.6409,0.6395,0.6384,0.6382,0.6378,0.638,0.6371,0.6357,0.6354,0.6375,0.6376,0.6376,0,0.666,0.6625,0.6602,0.6591,0.656,0.6549,0.6536,0.6512,0.6498,0.6476,0.6466,0.644,0.6426,0.6406,0.6387,0.6391,0.6355,0.6356,0.6345,0.6346,0.6337,0.6338,0.6319,0.6331,0.6331,0.6331,0.6331,0,0.6644,0.6626,0.6601,0.6587,0.6565,0.6548,0.6527,0.6512,0.6491,0.6473,0.646,0.6442,0.6419,0.6398,0.6383,0.6357,0.6351,0.6341,0.6337,0.6342,0.6343,0.6331,0.6332,0.633,0.633,0.633,0.633,0,0.6639,0.6622,0.6596,0.6569,0.6561,0.6547,0.6523,0.6508,0.6493,0.6469,0.6463,0.6439,0.6413,0.6393,0.636,0.635,0.6322,0.6318,0.633,0.6328,0.6318,0.6319,0.629,0.6285,0.6302,0.6301,0.6301,0,0.6629,0.6615,0.6587,0.6574,0.6561,0.6541,0.6526,0.6508,0.6493,0.6465,0.6453,0.6428,0.6406,0.6366,0.6344,0.6319,0.6313,0.6305,0.6309,0.6314,0.6311,0.6312,0.631,0.6304,0.6304,0.6304,0.6304,0,0.6614,0.6606,0.6586,0.6564,0.6547,0.6528,0.6508,0.6498,0.6477,0.646,0.6435,0.6419,0.6385,0.6359,0.6331,0.6315,0.6305,0.6303,0.6299,0.6303,0.631,0.6305,0.6328,0.6304,0.6304,0.6304,0.6304,0.6304,0.6605,0.6591,0.6569,0.6548,0.6531,0.6513,0.6498,0.6482,0.6461,0.6433,0.6424,0.6398,0.6373,0.6335,0.6319,0.6298,0.6296,0.6291,0.6289,0.6288,0.6288,0.6315,0.6292,0.6292,0.6292,0.6292,0.6292,0,0.6588,0.6573,0.6554,0.6527,0.651,0.6504,0.6482,0.6467,0.6445,0.6424,0.6404,0.6375,0.6349,0.6326,0.63,0.6287,0.6281,0.628,0.628,0.6276,0.6291,0.6296,0.6285,0.6285,0.6285,0.6285,0.6285,0.6285,0.6577,0.6553,0.6543,0.6511,0.6496,0.6472,0.6459,0.6442,0.6426,0.6394,0.6374,0.6359,0.6337,0.6309,0.6285,0.6279,0.6269,0.6269,0.6261,0.6274,0.6275,0.6276,0.6282,0.6267,0.6267,0.6248,0.6248,0.6248]}]]